TimeHST,TemperatureF,Dew PointF,Humidity,Sea Level PressureIn,VisibilityMPH,Wind Direction,Wind SpeedMPH,Gust SpeedMPH,PrecipitationIn,Events,Conditions,WindDirDegrees,DateUTC
12:48 AM,75.2,64.4,69,30.12,10.0,ENE,16.1,-,N/A,,Mostly Cloudy,70,2012-11-18 10:48:00
12:53 AM,75.0,64.9,71,30.12,10.0,ENE,15.0,-,N/A,,Mostly Cloudy,70,2012-11-18 10:53:00
1:00 AM,75.2,64.4,69,30.12,10.0,ENE,17.3,-,N/A,,Mostly Cloudy,70,2012-11-18 11:00:00
1:33 AM,75.2,66.2,73,30.11,10.0,ENE,17.3,-,N/A,,Mostly Cloudy,70,2012-11-18 11:33:00
1:42 AM,75.2,66.2,73,30.11,10.0,ENE,17.3,-,N/A,,Mostly Cloudy,70,2012-11-18 11:42:00
1:53 AM,75.0,64.9,71,30.10,10.0,ENE,13.8,-,N/A,,Scattered Clouds,70,2012-11-18 11:53:00
2:53 AM,75.0,64.0,69,30.09,10.0,ENE,15.0,-,N/A,,Mostly Cloudy,70,2012-11-18 12:53:00
3:53 AM,75.0,64.9,71,30.07,10.0,ENE,16.1,-,N/A,,Mostly Cloudy,70,2012-11-18 13:53:00
4:19 AM,75.2,64.4,69,30.09,10.0,ENE,17.3,-,N/A,,Mostly Cloudy,70,2012-11-18 14:19:00
4:28 AM,75.2,64.4,69,30.09,10.0,ENE,15.0,-,N/A,,Scattered Clouds,70,2012-11-18 14:28:00
4:53 AM,75.0,64.9,71,30.08,10.0,ENE,18.4,-,N/A,,Mostly Cloudy,60,2012-11-18 14:53:00
5:53 AM,75.0,64.9,71,30.08,10.0,ENE,17.3,-,N/A,,Scattered Clouds,60,2012-11-18 15:53:00
6:53 AM,75.0,64.0,69,30.10,10.0,ENE,15.0,-,N/A,,Scattered Clouds,60,2012-11-18 16:53:00
7:53 AM,77.0,64.9,66,30.12,10.0,NE,16.1,-,N/A,,Mostly Cloudy,50,2012-11-18 17:53:00
8:53 AM,79.0,64.9,62,30.14,10.0,ENE,15.0,-,N/A,,Mostly Cloudy,60,2012-11-18 18:53:00
9:53 AM,80.1,66.0,62,30.15,10.0,ENE,16.1,-,N/A,,Scattered Clouds,60,2012-11-18 19:53:00
10:53 AM,80.1,64.9,60,30.14,10.0,NE,16.1,-,N/A,,Partly Cloudy,50,2012-11-18 20:53:00
11:53 AM,81.0,66.0,60,30.11,10.0,ENE,17.3,-,N/A,,Clear,60,2012-11-18 21:53:00
12:53 PM,80.1,64.9,60,30.09,10.0,ENE,13.8,-,N/A,,Scattered Clouds,60,2012-11-18 22:53:00
1:53 PM,80.1,66.0,62,30.07,10.0,ENE,15.0,-,N/A,,Partly Cloudy,60,2012-11-18 23:53:00
2:53 PM,80.1,66.0,62,30.05,10.0,ENE,12.7,-,N/A,,Partly Cloudy,60,2012-11-19 00:53:00
3:53 PM,79.0,64.9,62,30.06,10.0,ENE,13.8,-,N/A,,Clear,70,2012-11-19 01:53:00
4:53 PM,78.1,66.0,66,30.05,10.0,East,12.7,-,N/A,,Mostly Cloudy,80,2012-11-19 02:53:00
5:11 PM,77.0,64.4,65,30.06,10.0,ENE,13.8,-,N/A,,Scattered Clouds,70,2012-11-19 03:11:00
5:53 PM,75.9,66.0,71,30.06,10.0,East,15.0,-,N/A,,Partly Cloudy,80,2012-11-19 03:53:00
6:53 PM,75.9,64.0,67,30.07,10.0,East,13.8,-,N/A,,Clear,90,2012-11-19 04:53:00
7:53 PM,75.9,66.0,71,30.08,10.0,East,13.8,-,N/A,,Mostly Cloudy,90,2012-11-19 05:53:00
8:53 PM,75.9,66.0,71,30.09,10.0,East,11.5,-,N/A,,Overcast,90,2012-11-19 06:53:00
9:53 PM,75.9,66.0,71,30.09,10.0,East,13.8,-,N/A,,Mostly Cloudy,90,2012-11-19 07:53:00
10:53 PM,75.9,66.0,71,30.10,10.0,East,11.5,-,N/A,,Mostly Cloudy,90,2012-11-19 08:53:00
11:48 PM,75.2,66.2,73,30.10,10.0,ENE,11.5,-,N/A,,Overcast,60,2012-11-19 09:48:00
11:53 PM,75.9,66.9,74,30.09,10.0,ENE,12.7,-,N/A,,Mostly Cloudy,60,2012-11-19 09:53:00